Location: ?
(35.3436°N, 139.3168°E)
Time: 10:16:27
(UTC+00:00)

X-37B - Pass Details

Date: 15 May 2021
Orbit: 386 x 389 km, 45.0° (Epoch: 10 June)

Event Time Altitude Azimuth Distance (km) Brightness Sun altitude
Rises 10:03:30 0° 306° (NW) 2,273 6.9 -5.1°
Reaches altitude 10° 10:05:42 10° 316° (NW) 1,416 4.9 -5.5°
Maximum altitude 10:08:38 34° 23° (NNE) 665 1.8 -6.1°
Drops below altitude 10° 10:11:35 10° 91° (E) 1,410 2.9 -6.6°
Enters shadow 10:12:10 - 95° (E) 1,636 3.2 -6.7°
